Find Starlink 3128

NORAD ID: 49441 Int'l Des: 2021-104 Owner: SPXS Country: US Constellation: starlink operational
LEOCIRCULAR

Live-Position

3D-Globus wird geladen...

Über Starlink 3128

Beschreibung wird geladen...

Nächste Überflüge

Passes for default location (London). Set your location on the main map for personalized predictions.

Höhenverlauf

Loading altitude history...

Zweizeiliger Elementsatz

1 49441U 21104AK 26106.09524578 .00000115 00000-0 25326-4 0 9994
2 49441 53.2181 41.1968 0001392 93.2181 266.8970 15.08842477244567
Epoch: 16. Apr. 2026 • Age: 31 hours

Aktueller Status

Höhe 542.2 km
Geschwindigkeit 7.59 km/s
Subsatellitenpunkt -8.47°S, 123.75°W
Startdatum 13. Nov. 2021
Alter 4.4 years
Typ internet

Technische Details

Klassifizierung Payload
Masse 290.00 kg
Trockenmasse 270.00 kg
Gesamtmasse 290.00 kg
Länge 0.20 m
Durchmesser 2.80 m
Spannweite 9.00 m
Form Box + pan
Hersteller SPXS
Bus-Typ Starlink
Phasenstatus In Orbit
Besitzer/Staat SPXS/US

Most Searched